Precipitable_Water
0.41 0.31 0.22 0.23 0.24 0.24 0.21 0.19 0.18 0.21 0.24 0.23 0.22 0.22 0.25 0.30 0.31 0.31 0.33 0.34 0.36 0.36 0.40 0.41 0.42 0.43 0.43 0.44 0.44 0.44 0.44 0.45 0.44 0.43 0.41 0.41 0.41 0.43 0.45 0.46 0.47 0.47 0.48 0.49
0.32 0.25 0.27 0.26 0.25 0.21 0.20 0.19 0.19 0.22 0.26 0.24 0.22 0.21 0.26 0.30 0.31 0.33 0.33 0.33 0.33 0.35 0.36 0.38 0.39 0.40 0.41 0.42 0.43 0.43 0.44 0.45 0.44 0.43 0.43 0.42 0.42 0.43 0.44 0.46 0.46 0.47 0.47 0.48
0.29 0.25 0.24 0.22 0.21 0.20 0.21 0.20 0.20 0.21 0.25 0.25 0.22 0.19 0.22 0.27 0.30 0.31 0.31 0.32 0.33 0.32 0.32 0.34 0.37 0.39 0.41 0.41 0.42 0.41 0.42 0.42 0.43 0.44 0.43 0.43 0.43 0.42 0.42 0.43 0.44 0.47 0.49 0.49
0.33 0.31 0.24 0.23 0.23 0.24 0.20 0.26 0.25 0.23 0.21 0.17 0.21 0.13 0.17 0.22 0.24 0.27 0.28 0.30 0.31 0.32 0.34 0.35 0.37 0.39 0.41 0.41 0.41 0.39 0.40 0.40 0.39 0.40 0.39 0.38 0.36 0.35 0.38 0.40 0.43 0.44 0.48 0.50
0.20 0.23 0.23 0.24 0.25 0.28 0.23 0.27 0.23 0.23 0.21 0.19 0.18 0.15 0.15 0.22 0.19 0.22 0.26 0.30 0.32 0.34 0.35 0.36 0.37 0.39 0.40 0.39 0.39 0.39 0.41 0.40 0.41 0.41 0.41 0.39 0.37 0.38 0.40 0.41 0.42 0.43 0.46 0.48
0.27 0.31 0.28 0.28 0.29 0.28 0.27 0.26 0.25 0.24 0.21 0.14 0.17 0.16 0.13 0.17 0.18 0.22 0.27 0.30 0.33 0.35 0.36 0.37 0.39 0.38 0.38 0.40 0.40 0.40 0.40 0.40 0.41 0.41 0.41 0.41 0.40 0.41 0.41 0.42 0.41 0.42 0.45 0.48
0.29 0.31 0.34 0.34 0.27 0.30 0.28 0.25 0.18 0.15 0.15 0.13 0.19 0.16 0.15 0.19 0.24 0.26 0.27 0.31 0.35 0.36 0.36 0.37 0.36 0.37 0.39 0.38 0.38 0.39 0.41 0.41 0.43 0.43 0.43 0.43 0.42 0.43 0.43 0.44 0.45 0.47 0.51 0.54
0.21 0.18 0.25 0.32 0.30 0.26 0.25 0.24 0.18 0.13 0.13 0.14 0.19 0.14 0.16 0.24 0.28 0.31 0.33 0.34 0.35 0.36 0.36 0.36 0.36 0.37 0.38 0.39 0.40 0.41 0.43 0.43 0.45 0.46 0.45 0.46 0.46 0.46 0.47 0.49 0.51 0.54 0.56 0.61
0.20 0.20 0.27 0.26 0.26 0.27 0.23 0.20 0.24 0.19 0.19 0.15 0.15 0.17 0.21 0.25 0.26 0.28 0.29 0.31 0.33 0.35 0.36 0.35 0.37 0.38 0.38 0.38 0.40 0.44 0.46 0.47 0.49 0.49 0.48 0.47 0.47 0.48 0.51 0.54 0.58 0.61 0.64 0.65
0.27 0.20 0.25 0.25 0.28 0.28 0.25 0.26 0.19 0.20 0.14 0.12 0.14 0.14 0.13 0.18 0.19 0.24 0.27 0.30 0.34 0.35 0.36 0.37 0.38 0.39 0.37 0.36 0.42 0.46 0.50 0.51 0.52 0.51 0.49 0.48 0.50 0.54 0.57 0.59 0.61 0.62 0.64 0.66
0.28 0.24 0.23 0.27 0.24 0.22 0.24 0.22 0.23 0.23 0.20 0.15 0.13 0.12 0.19 0.19 0.20 0.23 0.28 0.32 0.34 0.34 0.34 0.37 0.38 0.37 0.34 0.32 0.37 0.41 0.49 0.47 0.47 0.53 0.51 0.51 0.53 0.55 0.58 0.59 0.60 0.61 0.62 0.62
0.30 0.27 0.22 0.23 0.27 0.30 0.29 0.25 0.25 0.19 0.16 0.18 0.18 0.12 0.22 0.23 0.25 0.29 0.30 0.31 0.33 0.34 0.33 0.37 0.38 0.36 0.32 0.31 0.37 0.40 0.36 0.30 0.37 0.50 0.51 0.53 0.54 0.57 0.57 0.57 0.58 0.60 0.59 0.61
0.31 0.25 0.20 0.21 0.25 0.29 0.27 0.27 0.27 0.27 0.24 0.16 0.16 0.13 0.23 0.26 0.28 0.30 0.29 0.29 0.30 0.31 0.30 0.36 0.36 0.36 0.32 0.34 0.36 0.37 0.29 0.25 0.25 0.33 0.39 0.44 0.48 0.54 0.55 0.56 0.57 0.58 0.59 0.61
0.35 0.28 0.24 0.20 0.24 0.27 0.26 0.27 0.27 0.26 0.20 0.20 0.16 0.17 0.18 0.24 0.23 0.24 0.25 0.29 0.29 0.29 0.30 0.36 0.36 0.36 0.34 0.35 0.32 0.27 0.23 0.22 0.21 0.21 0.24 0.26 0.29 0.35 0.40 0.46 0.50 0.55 0.58 0.60
0.33 0.26 0.28 0.27 0.28 0.27 0.27 0.26 0.27 0.24 0.24 0.22 0.15 0.17 0.19 0.20 0.21 0.23 0.28 0.29 0.28 0.29 0.33 0.35 0.35 0.33 0.32 0.32 0.23 0.22 0.19 0.19 0.20 0.18 0.19 0.21 0.22 0.22 0.23 0.25 0.33 0.40 0.43 0.49
0.33 0.25 0.26 0.24 0.27 0.29 0.25 0.26 0.27 0.26 0.24 0.21 0.19 0.14 0.18 0.26 0.30 0.31 0.30 0.30 0.31 0.34 0.36 0.36 0.35 0.31 0.25 0.22 0.18 0.18 0.20 0.18 0.17 0.16 0.16 0.17 0.17 0.17 0.17 0.18 0.18 0.20 0.21 0.27
0.29 0.28 0.27 0.21 0.28 0.28 0.20 0.23 0.22 0.21 0.22 0.21 0.15 0.16 0.22 0.26 0.30 0.31 0.34 0.35 0.37 0.38 0.39 0.38 0.34 0.28 0.25 0.21 0.19 0.15 0.16 0.17 0.17 0.16 0.16 0.15 0.15 0.15 0.15 0.16 0.15 0.15 0.16 0.16
0.32 0.33 0.33 0.22 0.23 0.14 0.20 0.24 0.22 0.21 0.22 0.22 0.20 0.19 0.27 0.31 0.33 0.36 0.38 0.39 0.40 0.42 0.40 0.35 0.29 0.23 0.23 0.20 0.17 0.16 0.17 0.15 0.14 0.15 0.15 0.15 0.14 0.14 0.14 0.14 0.14 0.14 0.15 0.15
0.34 0.30 0.23 0.20 0.19 0.21 0.21 0.23 0.22 0.21 0.18 0.25 0.23 0.28 0.32 0.33 0.35 0.34 0.40 0.43 0.42 0.43 0.38 0.31 0.26 0.22 0.22 0.19 0.18 0.17 0.15 0.15 0.14 0.14 0.15 0.15 0.14 0.14 0.14 0.13 0.14 0.14 0.13 0.13
0.27 0.30 0.25 0.25 0.19 0.15 0.20 0.27 0.33 0.30 0.16 0.23 0.30 0.30 0.30 0.32 0.25 0.31 0.40 0.42 0.43 0.40 0.33 0.28 0.24 0.23 0.21 0.19 0.20 0.17 0.15 0.14 0.14 0.14 0.14 0.15 0.14 0.14 0.14 0.14 0.14 0.14 0.14 0.13
0.24 0.29 0.26 0.24 0.21 0.21 0.27 0.31 0.34 0.18 0.17 0.27 0.30 0.33 0.32 0.30 0.33 0.37 0.41 0.42 0.42 0.36 0.31 0.27 0.23 0.22 0.18 0.20 0.20 0.15 0.14 0.13 0.15 0.15 0.15 0.15 0.15 0.14 0.14 0.14 0.14 0.15 0.13 0.13
0.21 0.23 0.22 0.24 0.21 0.16 0.32 0.32 0.24 0.28 0.33 0.34 0.37 0.36 0.35 0.36 0.37 0.37 0.39 0.41 0.39 0.35 0.30 0.24 0.22 0.19 0.20 0.22 0.18 0.15 0.14 0.16 0.16 0.15 0.14 0.14 0.14 0.14 0.14 0.14 0.15 0.14 0.14 0.14
0.20 0.25 0.22 0.23 0.21 0.32 0.35 0.32 0.38 0.39 0.36 0.37 0.35 0.37 0.36 0.35 0.35 0.36 0.38 0.38 0.37 0.32 0.25 0.23 0.20 0.19 0.22 0.20 0.18 0.15 0.15 0.16 0.16 0.15 0.14 0.14 0.14 0.14 0.14 0.15 0.15 0.15 0.14 0.14
0.25 0.28 0.25 0.23 0.25 0.33 0.35 0.39 0.41 0.42 0.42 0.42 0.40 0.39 0.36 0.33 0.34 0.35 0.37 0.37 0.36 0.28 0.21 0.21 0.21 0.21 0.18 0.20 0.18 0.16 0.16 0.16 0.14 0.13 0.14 0.13 0.13 0.13 0.14 0.14 0.15 0.15 0.15 0.14
0.28 0.31 0.24 0.21 0.30 0.36 0.37 0.39 0.43 0.45 0.46 0.43 0.43 0.40 0.35 0.34 0.33 0.35 0.36 0.37 0.35 0.27 0.22 0.21 0.19 0.19 0.19 0.19 0.17 0.17 0.16 0.15 0.13 0.13 0.13 0.12 0.12 0.12 0.13 0.14 0.15 0.15 0.17 0.17
0.25 0.18 0.22 0.24 0.35 0.35 0.36 0.40 0.44 0.43 0.43 0.43 0.41 0.37 0.36 0.36 0.35 0.34 0.35 0.37 0.34 0.27 0.22 0.22 0.20 0.19 0.19 0.19 0.18 0.17 0.16 0.15 0.14 0.13 0.12 0.12 0.12 0.12 0.12 0.12 0.13 0.15 0.16 0.17
Wind_Speed
16 16 17 17 16 15 14 15 17 18 20 21 22 24 21 21 21 22 23 24 25 26 27 29 31 33 34 35 36 37 39 39 41 41 42 43 44 45 44 45 46 47 47 47
18 20 20 17 17 18 17 18 20 21 20 21 24 25 23 24 24 24 24 25 26 28 29 31 32 34 34 35 36 38 39 40 42 43 44 45 46 46 48 49 49 49 50 51
21 19 15 16 17 19 20 20 20 22 22 22 25 27 24 23 23 23 24 25 26 28 29 30 32 33 34 35 37 39 40 42 43 45 46 47 47 48 48 48 49 50 52 53
23 21 20 19 21 20 23 23 23 22 21 22 22 26 25 24 24 26 26 25 26 27 29 30 32 33 35 37 38 41 42 43 44 45 46 47 48 49 50 51 50 50 50 51
20 19 18 19 20 19 21 19 19 20 22 23 23 24 22 23 26 26 25 25 26 28 29 31 33 34 36 38 40 41 42 43 43 44 44 44 45 46 46 46 47 47 47 47
23 21 19 18 18 18 17 18 19 20 21 25 25 24 26 22 22 24 24 26 27 28 29 31 32 34 36 37 39 40 41 41 40 40 40 39 39 40 40 40 40 41 42 43
20 24 23 21 20 20 19 19 20 21 19 23 20 23 29 26 26 26 26 26 26 27 30 31 33 34 36 37 37 37 36 35 35 35 34 33 34 35 36 35 35 36 36 37
19 19 19 19 23 19 19 20 19 20 20 23 21 25 24 24 24 26 25 25 27 28 29 31 31 32 32 32 32 31 30 30 30 31 31 30 30 31 31 31 31 32 32 33
17 19 17 17 17 17 16 18 18 20 21 23 24 25 27 26 26 26 27 27 27 28 29 29 29 29 28 28 28 27 26 26 27 28 27 27 28 28 26 25 26 24 24 25
19 17 18 17 16 16 18 16 16 17 19 22 24 28 29 25 26 28 28 28 27 27 27 26 26 26 26 26 25 23 22 22 23 25 25 24 22 21 20 19 17 16 17 17
18 18 18 18 19 18 17 18 17 18 19 21 24 26 21 26 26 27 27 26 25 25 24 24 24 24 24 23 22 19 18 18 20 21 23 21 19 18 17 15 15 15 16 14
18 16 18 18 18 19 19 20 19 19 21 21 22 30 23 24 26 26 26 22 23 22 22 21 21 22 21 20 17 14 12 15 16 18 19 20 20 19 19 18 17 17 17 16
17 17 17 18 19 20 21 21 19 19 20 26 23 27 23 26 26 26 24 23 22 20 19 18 18 18 17 14 11 7 8 11 14 16 17 19 20 20 21 22 23 23 22 19
17 18 19 22 19 18 20 20 21 21 22 24 32 32 31 30 29 26 24 21 19 18 16 15 15 14 11 8 6 4 7 9 12 15 17 18 19 19 20 21 22 25 26 27
19 21 20 22 20 20 22 23 22 24 28 26 35 33 34 30 27 25 22 19 17 15 14 13 12 10 7 5 4 3 5 8 11 13 15 17 19 20 21 21 22 23 24 26
20 19 19 21 21 21 24 25 26 27 30 29 31 35 29 25 20 17 15 14 15 13 12 12 9 6 4 2 1 3 5 7 10 12 14 16 18 20 22 23 23 23 24 24
18 17 17 21 19 19 24 23 23 22 23 23 25 27 21 21 19 16 14 13 12 11 11 9 7 5 4 2 1 2 4 6 9 11 13 15 17 20 22 23 24 24 25 25
18 16 17 17 16 19 19 17 18 21 24 25 28 25 21 18 15 13 13 11 11 10 9 8 8 6 5 4 2 1 2 5 8 9 12 14 16 18 19 21 22 23 24 25
20 18 16 16 17 21 22 17 16 18 22 20 21 16 14 11 10 11 10 10 9 9 8 8 8 7 6 5 4 3 3 5 6 8 10 12 14 16 18 19 21 21 22 23
17 17 17 15 16 18 16 16 16 16 21 16 14 13 11 10 11 11 10 9 8 8 8 9 9 9 8 6 5 5 5 5 5 7 8 10 13 14 16 17 18 19 20 21
15 15 19 18 18 20 20 16 14 14 15 11 13 11 10 11 11 10 7 8 8 8 8 9 9 10 9 8 7 6 6 5 5 5 7 9 10 12 14 15 16 17 18 19
17 16 15 16 18 22 14 12 15 14 13 12 11 11 11 10 9 7 7 8 9 9 9 10 10 10 10 10 8 8 7 6 4 4 5 7 9 10 12 13 15 16 17 18
18 18 17 18 18 16 17 18 19 18 16 15 13 12 12 12 11 9 9 10 10 11 11 10 11 11 11 11 10 9 8 7 5 2 2 4 7 9 11 12 14 15 17 17
20 19 19 18 19 21 22 21 20 19 19 17 15 14 13 13 12 11 11 11 12 12 12 12 12 12 12 12 11 10 10 8 5 3 1 3 5 7 10 11 13 15 16 17
17 16 19 21 21 22 23 22 21 20 17 17 16 16 15 14 14 14 13 13 14 14 14 14 13 14 14 13 12 12 11 9 6 4 3 4 5 7 9 11 13 14 16 16
19 19 19 21 19 18 17 17 16 16 17 17 17 17 17 16 16 16 16 16 16 17 16 15 15 15 15 15 14 13 12 10 8 7 6 6 7 8 10 11 12 14 15 17
Wind_Direction
270 271 270 270 270 273 276 277 278 281 281 286 282 284 282 282 283 285 288 290 291 292 293 294 295 296 296 296 296 294 294 292 291 289 288 285 283 282 279 277 275 274 272 270
270 268 270 266 266 271 275 278 280 284 282 280 285 283 281 281 284 284 285 288 290 292 294 295 296 297 297 297 298 298 297 296 295 292 290 287 285 282 280 278 276 274 272 270
262 268 267 264 269 270 274 276 279 280 288 283 287 283 280 281 281 282 284 286 289 292 294 296 297 298 298 299 299 299 298 298 296 295 292 290 288 285 282 280 278 275 273 271
265 267 262 266 269 267 276 273 276 280 283 285 289 287 283 284 280 281 282 284 289 292 294 295 297 298 298 299 299 300 300 299 298 296 294 292 289 287 285 282 279 277 274 272
262 263 264 265 268 263 276 275 276 280 281 286 282 284 288 286 287 280 280 284 288 293 295 296 297 298 300 301 302 303 302 302 301 300 297 294 292 290 288 285 282 278 275 273
257 263 263 265 270 269 270 280 284 284 282 280 277 275 289 285 287 290 284 286 291 293 295 297 298 301 302 304 305 305 305 304 303 303 301 299 296 295 293 290 286 281 278 275
257 257 263 265 268 271 272 278 283 281 278 282 284 280 281 286 285 289 288 287 291 294 297 299 301 304 305 307 308 309 309 308 308 308 306 305 302 300 297 295 291 288 284 279
255 263 257 261 256 267 268 266 269 277 280 284 282 280 287 289 288 291 293 290 291 295 298 301 305 307 308 310 312 313 314 315 316 316 313 310 308 306 303 299 296 292 288 284
259 265 262 263 265 262 267 267 275 276 281 282 281 284 287 289 287 289 290 289 290 294 300 303 306 308 311 313 315 316 317 320 323 325 323 320 318 315 312 309 305 301 298 297
256 263 264 264 265 269 268 265 274 278 279 280 283 288 287 289 290 290 289 288 290 294 299 303 306 310 313 315 316 317 321 326 330 335 336 332 332 331 329 327 329 326 321 314
252 259 264 263 262 259 268 272 275 275 275 282 288 289 291 294 297 295 292 289 288 293 298 302 305 309 313 316 318 320 327 335 340 346 350 355 355 354 357 360 357 354 352 346
251 258 258 260 267 270 270 268 265 272 276 279 286 286 297 295 299 297 293 286 288 292 296 300 305 310 313 317 319 323 334 344 351 0 10 15 17 23 25 22 19 16 13 15
248 257 261 265 269 271 268 267 270 276 282 278 283 288 294 298 297 294 288 286 287 287 291 299 306 312 316 321 330 338 357 5 13 15 19 23 29 33 37 40 39 37 34 29
251 257 258 264 268 272 268 267 269 270 278 285 279 289 292 296 291 287 284 282 282 282 285 295 307 314 316 325 343 2 8 17 19 25 28 32 36 38 40 42 43 43 44 45
253 256 261 266 270 271 272 269 270 269 275 276 287 288 297 297 292 284 278 276 275 273 277 287 298 306 311 318 344 360 12 16 26 30 36 39 42 43 44 44 45 45 47 48
260 259 264 269 269 273 274 272 273 273 276 280 284 290 294 297 296 290 278 271 267 262 268 279 279 280 292 308 358 30 26 30 39 43 46 45 46 47 48 48 48 47 45 46
256 255 264 270 273 277 278 273 268 276 276 279 283 290 294 293 286 282 277 271 259 256 259 261 253 245 241 241 266 35 37 47 56 53 51 50 50 50 49 49 50 49 49 48
251 258 259 269 269 271 280 277 278 277 281 279 281 283 291 290 290 282 276 265 251 249 249 240 225 223 218 213 201 122 79 73 66 61 57 55 53 52 50 49 48 48 47 47
250 252 256 263 263 280 281 280 283 281 289 287 276 281 285 282 286 290 277 260 249 244 236 219 214 212 202 197 189 154 117 96 79 67 61 56 53 51 48 47 46 45 44 44
248 249 248 253 262 270 280 286 288 292 290 278 273 274 270 268 286 290 262 251 241 229 218 210 208 203 198 194 185 164 141 117 94 75 65 59 53 48 45 43 41 40 40 39
239 246 241 250 263 274 278 280 283 286 293 284 276 266 259 271 290 295 253 242 227 218 215 208 206 200 198 196 185 176 161 138 116 89 70 59 49 44 40 37 35 35 34 34
234 235 250 255 263 275 272 274 266 281 290 284 273 264 263 274 281 275 257 230 220 216 211 208 202 200 200 193 190 183 173 167 146 105 70 53 43 37 33 32 29 28 25 25
244 245 253 249 261 274 267 274 269 277 278 274 270 271 266 266 266 256 244 228 223 214 210 208 202 202 198 199 195 191 186 181 177 153 73 39 31 26 23 22 20 19 17 16
251 250 257 264 265 268 274 273 272 268 270 267 267 266 267 264 254 247 236 232 222 215 213 211 207 204 204 202 202 197 195 197 199 205 281 350 3 9 10 9 9 8 7 7
249 245 259 267 269 278 276 272 269 262 261 262 265 267 265 258 250 240 235 231 222 218 217 214 212 209 208 206 207 205 206 210 216 234 266 304 328 342 350 354 355 356 358 357
249 256 260 266 269 272 275 277 271 257 258 259 263 266 263 256 247 240 234 230 225 222 220 219 217 214 214 213 213 213 216 221 230 244 265 285 303 318 329 334 338 345 347 348